Find Starlink 30844

NORAD ID: 58403 Int'l Des: 2023-180 Owner: SPXS Country: US Constellation: starlink operational
LEOCIRCULAR

当前视图

正在加载3D地球...

About Starlink 30844

Starlink 30844 (NORAD 58403) is a starlink constellation satellite (v2 mini) launched Nov 22, 2023 by SPXS of US. It operates in LEO, CIRCULAR orbit with a mass of 730.00 kg.

关于 Starlink 30844

正在加载描述...

即将过境

Passes for default location (London). Set your location on the main map for personalized predictions.

高度历史

Loading altitude history...

两行轨道根数

1 58403U 23180B 26175.27658697 .00000470 00000-0 26621-4 0 9997
2 58403 43.0002 170.9022 0001249 271.3706 88.7002 15.27575766143806
Epoch: Jun 24, 2026 • Age: 8 hours

当前状态

高度 484.5 km
速度 7.63 km/s
星下点 30.95°N, 170.54°E
发射日期 Nov 22, 2023
运行时间 2.5 years
类型 internet

技术详情

分类 Payload
质量 730.00 kg
干质量 700.00 kg
总质量 730.00 kg
长度 0.30 m
直径 4.10 m
跨度 29.00 m
形状 Box + pan
制造商 SPXS
平台类型 Starlink V2M
阶段状态 In Orbit
所有者/国家 SPXS/US

Most Searched